Newport, VT

12:40 PM EDT on March 23, 2017 (GMT -0400)
Newport State

Weather History for KEFK - December, 2011

Change the Weather History Date:

Thursday, December 22, 2011

  Actual Average Record
Temperature  
Mean Temperature 38 °F -  
Max Temperature 43 °F 28 °F 57 °F (1949)
Min Temperature 32 °F 9 °F -28 °F (1955)
Degree Days  
Heating Degree Days 28    
Moisture  
Dew Point 31 °F    
Average Humidity 78    
Maximum Humidity 85    
Minimum Humidity 62    
Precipitation  
Precipitation 0.00 in - - ()
Sea Level Pressure  
Sea Level Pressure 29.90 in    
Wind  
Wind Speed 5 mph (West)    
Max Wind Speed 15 mph    
Max Gust Speed 21 mph    
Visibility 9 miles    
Events      
Averages and records for this station are not official NWS values.
T = Trace of Precipitation, MM = Missing Value Source: NWS Daily Summary

Daily Weather History Graph

Daily Weather History Graph

Search for Another Location

Airport or City:

Trip Planner

Search our weather history database for the weather conditions in past years. The results will help you decide how hot, cold, wet, or windy it might be!

Date:

Astronomy

Dec. 22, 2011 Rise Set
Actual Time 7:24 AM EST 4:10 PM EST
Civil Twilight 6:50 AM EST 4:44 PM EST
Nautical Twilight 6:13 AM EST 5:21 PM EST
Astronomical Twilight 5:37 AM EST 5:57 PM EST
Moon 5:03 AM EST (12/22) 2:18 PM EST (12/22)
Length of Visible Light 9h 54m
Length of Day
8h 46m
Waning Crescent, 6% of the Moon is Illuminated
Dec 22
Waning Crescent
Dec 24
New
Jan 1
First Quarter
Jan 9
Full
Jan 16
Last Quarter

Hourly Weather History & Observations

Time (EST) Temp. Windchill Dew Point Humidity Pressure Visibility Wind Dir Wind Speed Gust Speed Precip Events Conditions
12:15 AM 41.0 °F 36.4 °F 36.0 °F 82% 29.55 in 10.0 mi South 6.9 mph - N/A   Overcast
12:35 AM 41.2 °F - 36.1 °F 82% 29.55 in 10.0 mi Calm Calm - N/A   Overcast
12:55 AM 40.1 °F - 35.1 °F 82% 29.55 in 3.0 mi Calm Calm - N/A   Drizzle
1:15 AM 40.3 °F 38.2 °F 35.4 °F 83% 29.56 in 2.5 mi South 3.5 mph - N/A   Heavy Drizzle
1:35 AM 41.9 °F 40.0 °F 37.0 °F 83% 29.58 in 2.0 mi SSW 3.5 mph - N/A   Heavy Drizzle
1:55 AM 41.0 °F 38.0 °F 36.5 °F 84% 29.59 in 2.5 mi South 4.6 mph - N/A   Heavy Drizzle
2:15 AM 42.1 °F 39.2 °F 37.4 °F 83% 29.61 in 4.0 mi South 4.6 mph - N/A   Drizzle
2:55 AM 41.0 °F - 36.5 °F 84% 29.63 in 3.0 mi Calm Calm - N/A   Haze
3:15 AM 41.4 °F 35.2 °F 36.7 °F 83% 29.65 in 3.0 mi West 10.4 mph - N/A   Overcast
3:35 AM 43.9 °F 38.3 °F 39.2 °F 84% 29.67 in 7.0 mi West 10.4 mph - N/A   Drizzle
3:55 AM 41.4 °F 33.6 °F 36.5 °F 83% 29.70 in 7.0 mi West 15.0 mph 20.7 mph N/A   Overcast
4:15 AM 40.3 °F 33.9 °F 34.5 °F 80% 29.73 in 10.0 mi West 10.4 mph 20.7 mph N/A   Overcast
4:35 AM 39.0 °F 34.8 °F 33.3 °F 80% 29.75 in 10.0 mi WNW 5.8 mph - N/A   Overcast
4:55 AM 37.9 °F - 32.5 °F 81% 29.78 in 10.0 mi Calm Calm - N/A   Overcast
5:15 AM 37.4 °F - 32.0 °F 81% 29.79 in 10.0 mi Calm Calm - N/A   Overcast
5:35 AM 36.9 °F 34.3 °F 32.0 °F 83% 29.83 in 10.0 mi NW 3.5 mph - N/A   Overcast
5:55 AM 36.5 °F 33.9 °F 31.8 °F 83% 29.84 in 10.0 mi WSW 3.5 mph - N/A   Overcast
6:35 AM 35.8 °F - 31.1 °F 83% 29.87 in 5.0 mi Calm Calm - N/A   Haze
6:55 AM 35.8 °F 30.9 °F 31.5 °F 84% 29.89 in 4.0 mi West 5.8 mph - N/A   Haze
7:15 AM 36.0 °F 29.6 °F 31.8 °F 85% 29.90 in 7.0 mi West 8.1 mph - N/A   Overcast
7:35 AM 36.1 °F 31.4 °F 31.5 °F 83% 29.90 in 10.0 mi WSW 5.8 mph - N/A   Overcast
7:55 AM 36.5 °F 32.7 °F 31.8 °F 83% 29.91 in 10.0 mi West 4.6 mph - N/A   Overcast
8:15 AM 36.7 °F 28.9 °F 32.0 °F 83% 29.93 in 10.0 mi West 11.5 mph - N/A   Overcast
8:35 AM 37.4 °F 32.1 °F 32.0 °F 81% 29.95 in 10.0 mi West 6.9 mph - N/A   Overcast
9:15 AM 37.4 °F 31.4 °F 32.0 °F 81% 29.97 in 10.0 mi WSW 8.1 mph - N/A   Overcast
9:35 AM 37.6 °F 35.1 °F 32.0 °F 80% 29.98 in 10.0 mi NW 3.5 mph - N/A   Overcast
9:55 AM 37.8 °F 34.2 °F 32.0 °F 80% 29.99 in 10.0 mi West 4.6 mph - N/A   Overcast
10:35 AM 36.9 °F 32.2 °F 31.6 °F 81% 29.97 in 10.0 mi NW 5.8 mph - N/A   Overcast
10:55 AM 37.2 °F 32.6 °F 31.5 °F 80% 29.96 in 10.0 mi NW 5.8 mph - N/A   Mostly Cloudy
11:15 AM 36.9 °F - 30.6 °F 78% 29.95 in 10.0 mi Calm Calm - N/A   Mostly Cloudy
11:35 AM 38.5 °F 34.1 °F 31.6 °F 76% 29.96 in 10.0 mi WSW 5.8 mph - N/A   Overcast
11:55 AM 38.3 °F 30.5 °F 29.5 °F 71% 29.96 in 10.0 mi SW 12.7 mph 19.6 mph N/A   Overcast
12:15 PM 37.8 °F 30.7 °F 29.1 °F 71% 29.97 in 10.0 mi WSW 10.4 mph - N/A   Overcast
12:35 PM 37.6 °F 33.1 °F 28.4 °F 69% 29.99 in 10.0 mi SW 5.8 mph - N/A   Overcast
12:55 PM 38.3 °F 34.8 °F 28.6 °F 68% 29.99 in 10.0 mi SW 4.6 mph - N/A   Overcast
1:15 PM 39.2 °F 33.6 °F 28.4 °F 65% 29.98 in 10.0 mi West 8.1 mph - N/A   Mostly Cloudy
1:35 PM 39.4 °F 35.2 °F 27.7 °F 63% 29.99 in 10.0 mi WSW 5.8 mph - N/A   Scattered Clouds
1:55 PM 40.3 °F 36.3 °F 28.2 °F 62% 30.00 in 10.0 mi WSW 5.8 mph - N/A   Scattered Clouds
2:15 PM 40.1 °F 34.1 °F 28.8 °F 64% 30.00 in 10.0 mi West 9.2 mph - N/A   Scattered Clouds
2:35 PM 39.6 °F 34.0 °F 28.4 °F 64% 30.00 in 10.0 mi WNW 8.1 mph - N/A   Mostly Cloudy
2:55 PM 39.4 °F 37.2 °F 28.2 °F 64% 30.00 in 10.0 mi NW 3.5 mph - N/A   Overcast
3:15 PM 38.7 °F 35.2 °F 27.9 °F 65% 30.01 in 10.0 mi NW 4.6 mph - N/A   Scattered Clouds
3:35 PM 38.7 °F 35.2 °F 27.3 °F 64% 30.02 in 10.0 mi West 4.6 mph - N/A   Clear
3:55 PM 37.9 °F 35.5 °F 27.5 °F 66% 30.03 in 10.0 mi WNW 3.5 mph - N/A   Clear
4:35 PM 36.3 °F 33.7 °F 28.0 °F 72% 30.02 in 10.0 mi WNW 3.5 mph - N/A   Clear
4:55 PM 35.4 °F 31.5 °F 27.9 °F 74% 30.03 in 10.0 mi NW 4.6 mph - N/A   Clear
5:15 PM 35.2 °F 31.2 °F 28.0 °F 75% 30.03 in 10.0 mi NW 4.6 mph - N/A   Clear
5:35 PM 34.2 °F 29.0 °F 27.7 °F 77% 30.04 in 10.0 mi NNW 5.8 mph - N/A   Clear
5:55 PM 34.9 °F 29.9 °F 28.2 °F 77% 30.05 in 10.0 mi NW 5.8 mph - N/A   Clear
6:15 PM 34.9 °F 30.8 °F 28.2 °F 77% 30.07 in 10.0 mi WNW 4.6 mph - N/A   Clear
6:35 PM 34.2 °F - 28.8 °F 81% 30.08 in 10.0 mi Calm Calm - N/A   Clear
6:55 PM 32.9 °F - 27.7 °F 81% 30.08 in 10.0 mi Calm Calm - N/A   Scattered Clouds
7:15 PM 32.0 °F 28.7 °F 27.5 °F 83% 30.06 in 10.0 mi ESE 3.5 mph - N/A   Clear
7:35 PM 32.7 °F 29.6 °F 28.0 °F 83% 30.05 in 10.0 mi ESE 3.5 mph - N/A   Clear
7:55 PM 33.1 °F 30.0 °F 27.9 °F 81% 30.05 in 10.0 mi WSW 3.5 mph - N/A   Clear
8:15 PM 32.9 °F 29.8 °F 28.2 °F 83% 30.05 in 10.0 mi SW 3.5 mph - N/A   Clear
8:35 PM 32.5 °F - 28.0 °F 83% 30.04 in 10.0 mi Calm Calm - N/A   Clear
8:55 PM 33.1 °F - 28.2 °F 82% 30.03 in 10.0 mi Calm Calm - N/A   Clear
9:15 PM 33.1 °F 28.7 °F 28.2 °F 82% 30.03 in 10.0 mi SSW 4.6 mph - N/A   Clear
9:35 PM 33.4 °F 30.4 °F 28.8 °F 83% 30.02 in 10.0 mi South 3.5 mph - N/A   Clear
9:55 PM 33.3 °F - 28.0 °F 81% 30.01 in 10.0 mi Calm Calm - N/A   Scattered Clouds
10:15 PM 32.7 °F - 28.0 °F 83% 30.01 in 7.0 mi Calm Calm - N/A   Mostly Cloudy
10:35 PM 32.9 °F - 28.2 °F 83% 30.00 in 7.0 mi Calm Calm - N/A   Mostly Cloudy
10:55 PM 33.3 °F - 28.9 °F 84% 30.00 in 10.0 mi Calm Calm - N/A   Overcast
11:15 PM 34.2 °F 31.2 °F 29.1 °F 82% 30.00 in 10.0 mi SSW 3.5 mph - N/A   Overcast
11:35 PM 32.9 °F 29.8 °F 28.4 °F 84% 30.01 in 7.0 mi South 3.5 mph - N/A   Overcast